Home   Weather   Remscheid   Past weeks

Flag for Germany Past Weather in Remscheid, North Rhine-Westphalia, Germany — Yesterday and Last 2 Weeks

Now
36 °F

Sunny.


Feels Like: 28 °F
Forecast: 30 / 39 °F
Wind: 10 mph from Southeast

Location: Duesseldorf

Current Time: Dec 6, 2016 at 11:21:31 am

Latest Report: Dec 6, 2016 at 10:50 am


Visibility: 10 mi

Pressure: 30.45 "Hg

Humidity: 75%

Dew Point: 28 °F

Location of RemscheidLocation

Past Weather in Remscheid — Graph

°F

Remscheid Temperature Yesterday

Maximum temperature yesterday: 41 °F (at 1:20 pm)
Minimum temperature yesterday: 30 °F (at 1:50 am)
Average temperature yesterday: 35 °F

High & Low Weather Summary for the Past Weeks

 TemperatureHumidityPressure
High59 °F (Nov 21, 4:20 pm)100% (Nov 23, 4:50 am)30.60 "Hg (Nov 23, 4:50 am)
Low18 °F (Dec 4, 7:50 am)45% (Nov 29, 2:50 pm)29.47 "Hg (Nov 21, 3:20 pm)
Average39 °F84%30.21 "Hg
* Reported Nov 21 10:20 am — Dec 6 10:20 am, Remscheid, Weather by CustomWeather, © 2016

Note: Actual official high and low records may vary slightly from our data, if they occured in-between our weather recording intervals... More about our weather records

Advertising

Remscheid Weather History for the Previous 24 Hours

Scroll right to see more
 ConditionsComfort  
Time TempWeatherWind HumidityBarometerVisibility
10:20 am
Tue, Dec 6
34 °FPassing clouds.8 mph81%30.45 "HgN/A
9:50 am34 °FPassing clouds.7 mph81%30.45 "HgN/A
9:20 am32 °FPassing clouds.6 mph87%30.42 "HgN/A
8:50 am32 °FSunny.7 mph80%30.42 "Hg10 mi
8:20 am30 °FClear.6 mph86%30.42 "Hg10 mi
7:50 am30 °FPassing clouds.6 mph86%30.42 "HgN/A
7:20 am30 °FPassing clouds.6 mph86%30.39 "HgN/A
6:50 am30 °FPassing clouds.6 mph86%30.39 "HgN/A
6:20 am30 °FPassing clouds.5 mph86%30.39 "HgN/A
5:50 am30 °FPassing clouds.5 mph86%30.39 "HgN/A
5:20 am30 °FPassing clouds.6 mph86%30.39 "HgN/A
4:50 am30 °FClear.6 mph86%30.39 "Hg10 mi
4:20 am30 °FPassing clouds.3 mph86%30.39 "HgN/A
3:50 am30 °FClear.3 mph86%30.36 "Hg10 mi
3:20 am30 °FClear.2 mph86%30.36 "Hg10 mi
2:50 am30 °FPassing clouds.5 mph86%30.36 "HgN/A
2:20 am30 °FClear.5 mph86%30.36 "Hg10 mi
1:50 am30 °FPassing clouds.3 mph86%30.36 "HgN/A
1:20 am30 °FPassing clouds.3 mph86%30.36 "HgN/A
12:50 am32 °FPassing clouds.5 mph87%30.36 "HgN/A
12:20 am32 °FClear.3 mph87%30.36 "Hg10 mi
11:50 pm
Mon, Dec 5
32 °FClear.2 mph80%30.36 "Hg10 mi
11:20 pm34 °FPassing clouds.3 mph81%30.36 "HgN/A
10:50 pm32 °FPassing clouds.5 mph87%30.33 "HgN/A
10:20 pm34 °FClear.2 mph81%30.36 "Hg10 mi
9:50 pm34 °FClear.2 mph81%30.36 "Hg10 mi
9:20 pm34 °FPassing clouds.5 mph81%30.33 "HgN/A
8:50 pm36 °FClear.3 mph75%30.33 "Hg10 mi
8:20 pm36 °FPassing clouds.6 mph75%30.33 "HgN/A
7:50 pm36 °FClear.6 mph75%30.33 "Hg10 mi
7:20 pm36 °FClear.7 mph75%30.33 "Hg10 mi
6:50 pm36 °FPassing clouds.7 mph75%30.30 "HgN/A
6:20 pm37 °FClear.6 mph70%30.33 "Hg10 mi
5:50 pm36 °FPassing clouds.3 mph75%30.33 "HgN/A
5:20 pm36 °FClear.3 mph75%30.30 "Hg10 mi
4:50 pm36 °FClear.5 mph75%30.30 "Hg10 mi
4:20 pm39 °FSunny.3 mph65%30.30 "Hg10 mi
3:50 pm39 °FSunny.5 mph65%30.30 "Hg10 mi
3:20 pm41 °FPassing clouds.6 mph66%30.30 "HgN/A
2:50 pm41 °FSunny.5 mph66%30.30 "Hg10 mi
2:20 pm41 °FPassing clouds.6 mph66%30.30 "HgN/A
1:50 pm41 °FPassing clouds.6 mph61%30.30 "HgN/A
1:20 pm41 °FPassing clouds.7 mph61%30.30 "HgN/A
12:50 pm39 °FSunny.8 mph65%30.30 "Hg10 mi
12:20 pm39 °FSunny.8 mph65%30.30 "Hg10 mi
11:50 am37 °FSunny.12 mph65%30.30 "Hg10 mi
11:20 am37 °FPassing clouds.12 mph65%30.33 "HgN/A
Weather by CustomWeather, © 2016

See weather overviewHow to use our weather pages